Wind_Speed
25 24 25 25 25 25 24 24 23 23 22 19 16 13 13 11 11 12 13 14 13 13 13 12 13 13 11 9 7 5 4 4 4 4 3 3 3 3 3 2 2 3 4
29 27 27 28 29 27 27 26 25 25 24 24 19 16 15 14 13 13 14 15 14 14 14 13 13 13 11 9 7 6 5 5 4 3 1 2 3 3 3 3 3 3 3
33 31 31 31 31 30 30 29 28 27 26 27 23 19 17 17 16 15 15 15 15 15 14 13 13 13 12 10 9 8 7 7 6 4 1 2 3 4 4 4 4 3 2
39 36 35 34 33 34 32 32 31 30 28 28 26 22 20 20 18 17 16 16 15 14 14 14 14 12 12 10 9 8 7 6 4 2 2 3 3 3 3 3 4 5 5
43 41 39 38 36 36 36 34 33 32 30 30 29 26 22 22 21 19 17 15 14 13 13 13 12 12 11 10 8 7 5 4 4 4 3 4 3 3 3 3 4 5 6
49 46 44 43 40 38 40 37 35 34 33 31 32 29 26 25 24 22 19 17 15 14 13 13 11 10 9 8 7 6 6 5 6 5 5 5 5 5 6 6 6 7 8
55 54 49 47 45 43 41 41 38 36 36 33 35 32 29 28 27 25 22 19 17 15 13 12 10 10 9 8 7 6 6 6 5 5 7 6 6 7 8 8 9 9 10
62 59 57 52 50 47 44 43 42 39 38 36 36 35 32 31 30 28 25 21 18 17 15 13 12 11 9 9 8 6 6 5 5 4 4 5 6 7 8 10 10 10 10
65 66 63 57 55 51 48 49 45 43 41 39 38 38 34 33 33 31 28 24 21 20 18 16 15 13 11 10 8 7 4 3 2 2 2 4 5 6 7 8 9 10 10
65 70 69 63 57 54 53 51 50 46 43 42 40 41 38 36 36 34 31 28 25 23 21 19 17 14 12 10 9 8 6 3 2 2 3 5 7 8 8 9 9 9 9
62 71 73 68 62 57 56 54 53 49 46 45 43 44 42 39 38 37 34 31 28 26 24 22 20 16 13 11 10 8 6 4 3 1 3 4 6 7 8 9 10 10 10
53 65 75 72 65 58 51 58 55 52 49 47 46 46 44 42 41 39 37 34 31 29 27 25 22 19 16 13 11 10 8 7 5 5 4 5 6 8 9 11 13 13 14
48 57 73 72 69 65 57 62 58 56 52 50 48 48 46 44 43 42 39 37 33 31 30 27 25 22 18 15 12 11 11 11 10 9 7 6 7 9 10 11 14 15 16
56 57 66 72 68 67 70 64 61 58 56 52 51 50 48 46 45 44 43 40 37 35 32 30 28 25 21 17 15 12 13 13 11 10 9 8 9 9 10 12 14 16 18
52 60 63 73 75 60 74 66 62 61 62 54 53 51 51 49 48 47 45 42 39 37 35 33 31 29 25 21 18 16 14 13 12 11 10 11 12 13 14 16 17 19 21
48 60 64 76 76 85 63 66 63 64 63 59 56 54 53 53 51 49 48 45 42 40 38 36 35 33 30 26 23 20 18 16 15 14 14 15 16 18 18 20 22 25 28
41 59 65 77 89 62 88 79 63 69 66 63 58 57 54 55 53 52 50 47 45 43 40 38 37 36 33 30 28 25 23 22 21 20 19 20 20 22 23 25 26 27 30
36 55 68 97 56 69 77 62 78 65 67 67 63 60 59 56 56 55 52 50 47 45 43 40 39 38 37 35 33 31 29 27 26 26 25 24 25 26 29 30 31 32 35
38 50 69 80 78 56 63 82 66 57 71 65 64 64 61 60 58 57 55 52 51 48 46 44 42 41 39 39 37 36 34 33 31 30 30 31 31 32 34 35 36 37 39
41 49 68 86 73 67 68 84 66 73 66 66 74 67 62 61 59 59 57 54 52 51 48 46 44 43 42 41 40 39 38 38 37 36 35 37 37 38 38 39 40 42 43
26 43 57 73 75 63 50 72 75 70 75 69 66 70 64 61 60 58 57 56 53 52 50 48 47 45 44 43 42 42 42 42 42 42 42 42 44 44 45 45 44 47 46
17 28 45 56 63 67 51 60 76 72 76 63 66 69 69 63 60 60 58 57 56 54 53 49 48 47 46 46 46 46 45 46 46 47 47 47 49 50 51 52 55 47 50
17 22 25 40 47 51 63 54 78 67 58 60 62 71 66 63 58 59 58 58 56 57 54 52 51 49 48 49 49 49 48 49 50 51 52 52 54 54 53 53 57 60 55
18 21 14 37 44 60 64 43 73 39 44 53 63 63 67 60 57 57 58 58 56 55 54 54 53 51 49 50 50 50 51 52 52 54 54 55 54 54 54 57 59 60 63
20 24 21 18 13 40 38 61 54 48 49 49 63 57 56 59 59 57 56 55 55 54 54 53 52 51 50 51 51 52 52 53 54 56 56 56 55 58 59 58 65 63 61
22 21 23 24 18 19 21 49 53 50 35 45 44 48 56 63 63 60 56 56 58 56 56 55 53 53 51 52 51 51 52 54 55 57 56 56 58 60 58 61 59 53 49
Wind_Direction
238 228 227 220 219 220 216 212 208 207 206 204 199 193 188 181 178 180 180 178 173 170 170 167 163 164 166 168 167 171 163 154 144 123 106 88 63 47 36 25 3 10 8
241 234 228 226 221 221 220 216 212 210 208 206 203 199 194 186 183 181 182 177 173 169 168 167 167 173 177 184 187 193 187 172 162 154 114 30 5 352 349 345 349 352 355
242 236 231 229 228 220 222 218 215 211 211 207 207 203 197 191 187 183 183 180 176 174 173 174 178 184 187 191 195 195 186 184 180 177 199 293 313 322 338 347 350 354 6
242 238 236 229 229 228 221 220 218 215 212 209 208 207 201 194 192 187 189 185 181 179 176 177 181 184 188 192 195 196 189 194 202 225 257 283 292 305 321 351 350 345 344
241 236 232 233 228 230 226 222 220 217 214 211 209 209 205 199 194 190 191 192 188 184 180 181 182 187 189 186 188 194 204 231 261 274 276 277 283 291 300 309 314 317 323
241 237 231 230 228 228 231 223 221 218 216 213 209 210 209 204 197 192 193 196 192 189 186 186 183 186 188 194 203 221 240 256 275 290 289 289 286 295 293 295 297 300 306
236 238 231 229 228 224 230 226 221 219 216 214 211 210 211 206 201 196 196 197 197 196 194 194 195 199 206 212 219 239 257 269 276 294 294 294 288 287 292 293 292 295 305
235 232 234 227 226 224 224 230 223 219 216 213 212 210 211 209 203 199 199 200 201 202 200 204 207 209 215 220 223 235 250 262 285 294 295 294 290 293 299 302 303 310 313
233 229 230 227 225 222 220 225 224 220 216 211 210 210 211 211 205 202 201 202 204 207 205 206 209 211 216 216 214 209 208 224 258 295 292 300 314 323 321 317 320 320 320
232 224 224 226 222 222 220 221 222 219 216 211 209 209 210 211 208 203 203 204 206 208 208 206 204 207 204 206 207 199 187 185 222 288 303 310 314 318 321 323 314 315 314
233 220 220 221 221 219 221 221 220 218 215 211 209 209 209 210 210 206 205 206 207 210 210 208 206 205 201 203 206 207 197 191 202 234 329 338 330 325 311 301 304 306 305
231 221 214 215 215 214 219 220 219 213 215 212 209 210 209 210 209 208 208 208 209 213 212 211 208 205 204 206 214 221 219 217 227 261 292 327 340 335 326 320 311 303 302
235 220 211 210 211 215 223 220 217 212 213 211 210 210 209 211 211 211 210 211 211 214 215 214 212 208 208 212 216 236 239 236 243 256 267 295 330 341 345 337 328 320 316
238 224 212 206 206 213 222 213 213 210 209 211 210 210 209 211 213 212 212 212 212 215 217 218 215 214 213 215 219 233 241 246 252 251 264 283 308 325 331 329 329 323 317
231 220 212 203 203 211 221 212 212 208 207 210 211 210 210 210 213 213 214 214 214 217 218 221 220 217 217 219 222 229 238 249 251 259 273 291 302 305 312 318 312 315 318
230 218 209 200 197 205 198 209 206 210 205 208 211 211 211 211 212 214 215 216 215 218 220 222 224 222 220 222 227 233 240 249 253 262 266 276 287 297 300 305 311 311 312
236 219 210 199 210 207 204 211 207 208 207 207 211 213 213 213 212 214 216 217 218 219 222 224 227 227 226 227 229 234 240 247 254 259 265 273 283 294 298 297 298 304 310
234 226 214 205 195 208 215 205 210 209 210 206 209 212 214 214 214 215 216 217 219 221 223 225 229 230 230 231 233 236 239 245 251 258 261 268 273 280 285 289 290 298 304
241 233 217 218 211 184 215 215 202 206 209 213 212 212 213 214 215 216 217 218 219 221 223 226 229 232 234 236 236 239 242 247 251 257 264 267 268 274 278 281 285 291 296
245 227 218 212 196 198 203 200 201 213 210 216 216 212 213 214 215 216 217 220 221 222 224 227 229 232 235 238 241 242 245 248 252 256 261 265 266 273 275 278 282 285 289
230 218 229 224 221 209 196 192 201 207 206 226 218 216 215 216 217 218 219 220 223 225 226 228 231 234 236 239 241 244 245 247 251 254 257 262 267 272 273 275 278 282 286
196 220 232 234 222 229 196 194 210 211 213 215 216 218 218 219 218 219 220 222 224 227 229 230 233 236 238 240 243 245 247 249 252 254 257 260 265 272 276 282 286 287 295
177 178 244 233 221 241 213 205 201 215 215 213 218 220 217 218 218 221 223 224 226 228 230 232 234 236 238 241 244 247 249 251 253 256 258 260 265 271 277 280 285 286 290
178 176 213 231 241 231 228 188 195 203 213 217 216 215 215 218 220 221 224 227 228 230 232 233 236 239 242 245 247 249 251 254 257 259 262 264 267 271 274 277 282 284 287
165 164 181 180 215 238 250 243 235 205 205 215 209 219 221 220 223 223 226 228 230 232 235 237 238 240 242 245 247 251 254 256 259 261 264 266 270 275 278 278 277 281 286
163 165 192 202 214 271 285 250 238 191 206 218 218 214 219 222 222 225 227 229 232 235 237 238 240 242 243 246 250 253 256 259 261 263 266 269 272 273 272 277 279 275 278
Height
5825 5827 5829 5830 5831 5833 5835 5836 5839 5841 5844 5846 5847 5848 5849 5850 5850 5851 5852 5853 5854 5855 5856 5857 5859 5860 5862 5863 5864 5865 5865 5866 5867 5868 5868 5868 5869 5868 5868 5868 5868 5867 5867
5821 5824 5826 5827 5828 5830 5832 5833 5836 5838 5841 5843 5845 5846 5848 5849 5850 5851 5852 5853 5854 5855 5856 5857 5859 5860 5861 5863 5864 5865 5865 5866 5867 5868 5869 5869 5869 5869 5869 5869 5868 5867 5867
5816 5819 5821 5823 5825 5826 5828 5830 5833 5835 5838 5840 5843 5844 5846 5848 5849 5850 5852 5852 5853 5855 5856 5858 5859 5860 5862 5863 5864 5865 5866 5866 5867 5868 5869 5870 5870 5869 5869 5868 5868 5868 5868
5810 5813 5816 5818 5820 5823 5824 5826 5829 5831 5833 5837 5840 5842 5844 5845 5847 5849 5851 5852 5853 5854 5856 5857 5858 5860 5861 5862 5863 5865 5866 5867 5868 5868 5868 5868 5868 5868 5868 5868 5868 5868 5868
5802 5806 5809 5812 5815 5818 5820 5822 5824 5827 5829 5833 5836 5839 5841 5843 5845 5847 5849 5851 5852 5853 5855 5856 5857 5859 5860 5861 5863 5864 5865 5866 5866 5867 5867 5868 5868 5868 5868 5868 5868 5868 5868
5794 5797 5802 5804 5809 5812 5815 5817 5820 5822 5825 5828 5831 5835 5838 5840 5842 5845 5847 5849 5851 5852 5853 5855 5856 5857 5859 5860 5862 5863 5864 5865 5866 5866 5867 5867 5867 5867 5867 5867 5867 5867 5867
5784 5787 5793 5797 5801 5804 5809 5812 5815 5817 5820 5823 5827 5831 5834 5837 5839 5842 5844 5847 5849 5850 5852 5853 5855 5856 5858 5859 5861 5862 5863 5864 5865 5865 5866 5866 5866 5866 5866 5866 5866 5866 5866
5773 5777 5781 5788 5792 5797 5801 5805 5808 5811 5814 5818 5822 5826 5830 5833 5836 5838 5841 5844 5846 5848 5849 5851 5854 5855 5857 5858 5859 5860 5862 5863 5864 5864 5864 5865 5865 5865 5865 5865 5865 5865 5864
5757 5765 5769 5777 5783 5787 5792 5797 5801 5804 5807 5811 5816 5821 5825 5829 5832 5834 5837 5841 5843 5845 5847 5850 5852 5854 5855 5857 5858 5858 5860 5861 5863 5863 5863 5864 5864 5864 5863 5863 5863 5863 5863
5740 5749 5756 5764 5772 5779 5782 5787 5791 5796 5800 5804 5809 5814 5819 5823 5827 5830 5833 5837 5840 5842 5845 5848 5850 5852 5854 5855 5856 5857 5858 5860 5861 5862 5862 5863 5863 5862 5862 5862 5862 5861 5861
5723 5730 5744 5755 5762 5768 5773 5777 5782 5788 5793 5797 5802 5807 5812 5818 5823 5826 5829 5833 5836 5839 5842 5845 5847 5850 5851 5853 5855 5856 5857 5858 5859 5860 5861 5861 5861 5860 5860 5860 5860 5859 5859
5705 5714 5726 5738 5749 5756 5764 5767 5773 5779 5785 5790 5795 5800 5806 5812 5817 5821 5824 5828 5833 5836 5839 5842 5844 5847 5849 5851 5852 5854 5855 5856 5857 5858 5859 5859 5859 5859 5858 5858 5858 5858 5857
5692 5699 5708 5723 5736 5745 5748 5756 5763 5770 5777 5783 5788 5793 5799 5805 5810 5815 5819 5823 5829 5832 5835 5839 5841 5844 5846 5848 5850 5852 5853 5854 5854 5855 5856 5857 5857 5857 5856 5856 5856 5856 5855
5678 5685 5693 5707 5723 5738 5740 5745 5750 5761 5767 5775 5780 5786 5792 5799 5804 5809 5813 5817 5823 5827 5831 5835 5838 5840 5843 5845 5847 5849 5850 5851 5852 5853 5854 5854 5854 5854 5854 5854 5853 5853 5852
5662 5669 5679 5694 5707 5708 5727 5734 5742 5748 5755 5765 5772 5779 5784 5790 5797 5802 5807 5812 5818 5822 5826 5830 5833 5836 5839 5842 5843 5845 5847 5848 5849 5850 5851 5852 5852 5852 5851 5851 5850 5849 5849
5651 5655 5665 5679 5691 5690 5709 5716 5724 5739 5745 5753 5762 5770 5776 5782 5789 5795 5801 5806 5811 5816 5820 5825 5829 5832 5834 5837 5839 5841 5843 5844 5846 5847 5847 5848 5849 5849 5848 5848 5847 5846 5845
5644 5648 5653 5664 5668 5678 5686 5700 5716 5725 5735 5745 5753 5761 5768 5774 5781 5787 5794 5800 5806 5811 5815 5819 5823 5827 5830 5832 5835 5836 5838 5839 5841 5842 5843 5844 5844 5845 5845 5845 5844 5843 5842
5636 5639 5643 5646 5656 5668 5678 5690 5709 5716 5725 5735 5743 5751 5759 5767 5774 5780 5787 5792 5799 5804 5809 5813 5818 5821 5824 5827 5829 5831 5833 5834 5835 5836 5838 5839 5840 5840 5839 5839 5838 5837 5836
5626 5628 5633 5634 5643 5660 5673 5684 5694 5701 5716 5726 5733 5741 5750 5757 5765 5772 5779 5786 5791 5797 5802 5806 5810 5815 5818 5821 5823 5825 5828 5829 5830 5831 5832 5833 5833 5833 5833 5833 5832 5831 5829
5613 5619 5626 5632 5640 5654 5663 5674 5685 5695 5710 5714 5724 5732 5740 5749 5757 5764 5771 5778 5785 5790 5794 5799 5803 5807 5811 5814 5817 5820 5822 5823 5824 5825 5826 5826 5826 5826 5826 5826 5825 5824 5822
5606 5613 5621 5627 5638 5645 5650 5661 5678 5687 5698 5701 5715 5727 5734 5743 5751 5758 5765 5770 5777 5783 5788 5791 5796 5801 5804 5807 5810 5813 5814 5816 5817 5818 5818 5819 5819 5819 5818 5817 5817 5815 5814
5606 5613 5619 5626 5637 5640 5645 5658 5669 5678 5689 5699 5709 5717 5728 5738 5744 5752 5757 5763 5769 5775 5780 5785 5789 5793 5797 5800 5802 5804 5807 5809 5810 5810 5810 5810 5811 5811 5810 5810 5810 5809 5807
5608 5618 5620 5627 5636 5638 5643 5652 5660 5678 5682 5691 5701 5709 5720 5730 5737 5745 5751 5756 5761 5767 5772 5776 5780 5784 5787 5790 5793 5797 5798 5801 5801 5802 5802 5802 5802 5803 5803 5801 5800 5798 5796
5608 5616 5615 5623 5630 5633 5640 5648 5660 5669 5677 5686 5697 5703 5711 5721 5729 5736 5743 5749 5754 5759 5764 5767 5772 5776 5779 5783 5786 5788 5789 5792 5793 5793 5793 5794 5794 5794 5793 5791 5789 5787 5785
5607 5612 5613 5629 5630 5635 5641 5647 5653 5662 5672 5680 5688 5694 5701 5710 5721 5728 5734 5740 5745 5750 5755 5760 5763 5767 5769 5773 5775 5777 5780 5782 5783 5784 5784 5784 5784 5785 5784 5782 5777 5777 5774
5606 5610 5616 5627 5628 5632 5639 5645 5651 5659 5666 5673 5679 5688 5696 5703 5711 5720 5726 5732 5737 5741 5746 5751 5754 5758 5760 5763 5766 5769 5771 5772 5773 5773 5774 5774 5772 5772 5770 5769 5765 5763 5761